Fort Polk, LA

5:21 AM CST on December 15, 2017 (GMT -0600)
Fort Polk

Weather History for KBKB - May, 2013

Change the Weather History Date:

Sunday, May 19, 2013

  Actual Average (KPOE) Record (KPOE)
Temperature  
Mean Temperature 82 °F -  
Max Temperature 90 °F 82 °F 91 °F (1998)
Min Temperature 73 °F 63 °F 48 °F (2002)
Cooling Degree Days 16    
Growing Degree Days 32 (Base 50)    
Moisture  
Dew Point 70 °F    
Average Humidity 74    
Maximum Humidity 88    
Minimum Humidity 49    
Precipitation  
Precipitation 0.00 in - - ()
Sea Level Pressure  
Sea Level Pressure 29.96 in    
Wind  
Wind Speed 4 mph (South)    
Max Wind Speed 10 mph    
Max Gust Speed 22 mph    
Visibility 10 miles    
Events      
Averages and records for this station are not official NWS values.
T = Trace of Precipitation, MM = Missing Value Source: NWS Daily Summary

Daily Weather History Graph

Daily Weather History Graph

Search for Another Location

Airport or City:

Trip Planner

Search our weather history database for the weather conditions in past years. The results will help you decide how hot, cold, wet, or windy it might be!

Date:

Astronomy

May. 19, 2013 Rise Set
Actual Time 6:13 AM CDT 8:02 PM CDT
Civil Twilight 5:46 AM CDT 8:29 PM CDT
Nautical Twilight 5:14 AM CDT 9:02 PM CDT
Astronomical Twilight 4:40 AM CDT 9:36 PM CDT
Moon 2:29 PM CDT (5/19) 2:13 AM CDT (5/19)
Length of Visible Light 14h 42m
Length of Day
13h 49m
Waxing Gibbous, 65% of the Moon is Illuminated
May 19
Waxing Gibbous
May 24
Full
May 31
Last Quarter
Jun 8
New
Jun 16
First Quarter

Hourly Weather History & Observations

Time (CDT) Temp. Heat Index Dew Point Humidity Pressure Visibility Wind Dir Wind Speed Gust Speed Precip Events Conditions
12:52 AM 73.4 °F - 69.8 °F 88% 29.93 in 10.0 mi SSW 4.6 mph - N/A   Overcast
12:54 AM 73.9 °F - 70.0 °F 87% 30.00 in 10.0 mi Variable 3.5 mph - N/A   Overcast
1:54 AM 73.9 °F - 70.0 °F 87% 29.98 in 10.0 mi Variable 3.5 mph - N/A   Overcast
2:54 AM 73.9 °F - 70.0 °F 87% 29.98 in 10.0 mi Variable 3.5 mph - N/A   Overcast
3:36 AM 73.4 °F - 69.8 °F 88% 29.91 in 10.0 mi Calm Calm - N/A   Overcast
3:54 AM 73.9 °F - 70.0 °F 87% 30.00 in 10.0 mi Variable 3.5 mph - N/A   Mostly Cloudy
4:25 AM 73.4 °F - 69.8 °F 88% 29.92 in 10.0 mi Calm Calm - N/A   Scattered Clouds
4:54 AM 73.9 °F - 69.1 °F 85% 29.99 in 10.0 mi Calm Calm - N/A   Partly Cloudy
5:44 AM 73.4 °F - 69.8 °F 88% 29.92 in 10.0 mi Calm Calm - N/A   Mostly Cloudy
5:54 AM 73.9 °F - 70.0 °F 87% 29.99 in 10.0 mi Variable 3.5 mph - N/A   Overcast
6:16 AM 73.4 °F - 69.8 °F 88% 29.92 in 10.0 mi Calm Calm - N/A   Scattered Clouds
6:54 AM 73.9 °F - 70.0 °F 87% 29.99 in 10.0 mi Variable 4.6 mph - N/A   Scattered Clouds
7:03 AM 75.2 °F - 69.8 °F 83% 29.91 in 10.0 mi Variable 3.5 mph - N/A   Mostly Cloudy
7:13 AM 75.2 °F - 69.8 °F 83% 29.92 in 10.0 mi Variable 4.6 mph - N/A   Overcast
7:54 AM 75.9 °F - 70.0 °F 82% 29.99 in 10.0 mi SSW 6.9 mph - N/A   Overcast
8:13 AM 75.2 °F - 69.8 °F 83% 29.92 in 10.0 mi Variable 6.9 mph - N/A   Overcast
8:54 AM 77.0 °F - 70.0 °F 79% 30.01 in 10.0 mi Variable 5.8 mph - N/A   Overcast
9:33 AM 80.6 °F 84.6 °F 71.6 °F 74% 29.94 in 10.0 mi Variable 4.6 mph - N/A   Scattered Clouds
9:43 AM 82.4 °F 86.3 °F 69.8 °F 66% 29.94 in 10.0 mi Variable 4.6 mph 21.9 mph N/A   Mostly Cloudy
9:54 AM 82.9 °F 87.0 °F 70.0 °F 65% 30.01 in 10.0 mi Variable 5.8 mph - N/A   Mostly Cloudy
10:27 AM 82.4 °F 86.3 °F 69.8 °F 66% 29.93 in 10.0 mi South 10.4 mph 21.9 mph N/A   Scattered Clouds
10:52 AM 84.2 °F 88.4 °F 69.8 °F 62% 29.94 in 10.0 mi South 9.2 mph - N/A   Mostly Cloudy
10:54 AM 84.0 °F 87.8 °F 69.1 °F 61% 30.01 in 10.0 mi Variable 6.9 mph - N/A   Scattered Clouds
11:54 AM 86.0 °F 90.7 °F 70.0 °F 59% 30.00 in 10.0 mi Variable 6.9 mph - N/A   Mostly Cloudy
12:54 PM 88.0 °F 92.1 °F 69.1 °F 53% 29.99 in 10.0 mi SSW 10.4 mph 16.1 mph N/A   Scattered Clouds
1:54 PM 89.1 °F 92.9 °F 68.0 °F 50% 29.98 in 10.0 mi Variable 4.6 mph 16.1 mph N/A   Scattered Clouds
2:54 PM 88.0 °F 90.7 °F 66.9 °F 49% 29.97 in 10.0 mi Variable 5.8 mph - N/A   Scattered Clouds
3:54 PM 90.0 °F 94.5 °F 69.1 °F 50% 29.96 in 10.0 mi Variable 4.6 mph - N/A   Scattered Clouds
4:54 PM 87.1 °F 90.6 °F 68.0 °F 53% 29.94 in 10.0 mi South 9.2 mph - N/A   Scattered Clouds
5:54 PM 87.1 °F 91.3 °F 69.1 °F 55% 29.93 in 10.0 mi Variable 5.8 mph 17.3 mph N/A   Partly Cloudy
6:54 PM 82.9 °F 86.5 °F 69.1 °F 63% 29.93 in 10.0 mi Variable 5.8 mph - N/A   Clear
7:54 PM 81.0 °F 84.4 °F 70.0 °F 69% 29.94 in 10.0 mi Variable 6.9 mph - N/A   Clear
8:54 PM 79.0 °F - 71.1 °F 77% 29.95 in 10.0 mi Variable 3.5 mph - N/A   Clear
9:54 PM 78.1 °F - 72.0 °F 81% 29.96 in 10.0 mi Variable 5.8 mph - N/A   Clear
10:32 PM 78.8 °F - 71.6 °F 78% 29.90 in 10.0 mi Variable 3.5 mph - N/A   Mostly Cloudy
10:54 PM 78.1 °F - 72.0 °F 81% 29.98 in 10.0 mi Variable 6.9 mph - N/A   Overcast
11:26 PM 78.8 °F - 71.6 °F 78% 29.90 in 10.0 mi Variable 5.8 mph - N/A   Overcast
11:54 PM 78.1 °F - 72.0 °F 81% 29.98 in 10.0 mi Variable 3.5 mph - N/A   Overcast